User: anonymous   Login
Location: Fort Wayne
(41.1310°N, 85.1290°W)
Time: 23:00:00
(UTC-04:00)
Language:

Helios 1B - Orbit

View from above orbital plane
View from above orbital plane
View from above satellite
View from above satellite

Ground track
Ground track

The orbit data is extracted from the following two-line orbital elements,

1 25977U 99064A   18169.43179807 +.00000028 +00000-0 +10535-4 0  9990
2 25977 098.1843 293.3867 0001896 134.1420 225.9948 14.82358205998263
Epoch (UTC): 18 June 2018 10:21:47
Eccentricity: 0.0001896
inclination: 98.1843°
perigee height: 620 km
apogee height: 623 km
right ascension of ascending node: 293.3867°
argument of perigee: 134.1420°
revolutions per day: 14.82358205
mean anomaly at epoch: 225.9948°
orbit number at epoch: 99826

The dashed part of the orbit path shows where the satellite is in the earth's shadow,  

DLR